RUK36V EGCC-LEPA

Flight info

Callsign RUK36V
Flight time 2h 19m
Altitude 37000
Route SANBA N859 HON UN859 SOPIL DCT BALAN DCT EVPOK DCT NARAK DCT GAI DCT LOMRA DCT ROCAN DCT IBRAP N13 LORES
Aircraft B738/M-SDE3FGILRWY/SB1

Departure

Time 2026-05-07 11:53
Airport Manchester Airport (EGCC)

Arrival

Time 2026-05-07 14:13
Airport Palma de Mallorca Airport (LEPA)
Time Latitude Longitude Altitude Speed Heading
2026-05-07 10:44 53.35924 -2.26985 254 ft 0 kts 275°
2026-05-07 11:42 53.35924 -2.26983 282 ft 2 kts 275°
2026-05-07 11:42 53.35922 -2.26941 254 ft 4 kts 275°
2026-05-07 11:42 53.35920 -2.26896 254 ft 4 kts 275°
2026-05-07 11:43 53.35919 -2.26860 254 ft 4 kts 251°
2026-05-07 11:43 53.35932 -2.26838 254 ft 4 kts 174°
2026-05-07 11:43 53.35957 -2.26847 254 ft 4 kts 166°
2026-05-07 11:43 53.35962 -2.26849 254 ft 0 kts 166°
2026-05-07 11:47 53.35942 -2.26838 254 ft 4 kts 156°
2026-05-07 11:47 53.35925 -2.26800 255 ft 4 kts 107°
2026-05-07 11:47 53.35923 -2.26788 255 ft 0 kts 105°
2026-05-07 11:49 53.35920 -2.26769 255 ft 4 kts 106°
2026-05-07 11:49 53.35896 -2.26711 259 ft 7 kts 146°
2026-05-07 11:49 53.35850 -2.26689 265 ft 7 kts 169°
2026-05-07 11:49 53.35803 -2.26675 269 ft 7 kts 170°
2026-05-07 11:50 53.35735 -2.26656 268 ft 11 kts 171°
2026-05-07 11:50 53.35660 -2.26634 268 ft 11 kts 170°
2026-05-07 11:50 53.35587 -2.26633 263 ft 12 kts 197°
2026-05-07 11:50 53.35516 -2.26738 257 ft 14 kts 231°
2026-05-07 11:51 53.35450 -2.26873 252 ft 16 kts 231°
2026-05-07 11:51 53.35373 -2.27032 246 ft 18 kts 231°
2026-05-07 11:51 53.35316 -2.27151 242 ft 10 kts 231°
2026-05-07 11:51 53.35262 -2.27212 238 ft 10 kts 192°
2026-05-07 11:52 53.35196 -2.27234 232 ft 10 kts 191°
2026-05-07 11:52 53.35122 -2.27259 228 ft 11 kts 192°
2026-05-07 11:52 53.35049 -2.27285 225 ft 9 kts 192°
2026-05-07 11:52 53.35015 -2.27310 225 ft 5 kts 222°
2026-05-07 11:53 53.34988 -2.27364 224 ft 10 kts 230°
2026-05-07 11:53 53.34789 -2.27777 222 ft 92 kts 231°
2026-05-07 11:53 53.34203 -2.28983 247 ft 171 kts 230°
2026-05-07 11:53 53.33424 -2.30620 1259 ft 176 kts 229°
2026-05-07 11:54 53.32713 -2.32107 2706 ft 151 kts 227°
2026-05-07 11:54 53.32135 -2.33575 3382 ft 165 kts 251°
2026-05-07 11:54 53.32248 -2.35667 3674 ft 198 kts 279°
2026-05-07 11:54 53.32577 -2.38025 3966 ft 215 kts 278°
2026-05-07 11:55 53.32860 -2.40498 4527 ft 217 kts 266°
2026-05-07 11:55 53.32386 -2.42803 5166 ft 213 kts 228°
2026-05-07 11:55 53.31180 -2.44209 5882 ft 214 kts 200°
2026-05-07 11:55 53.29720 -2.44690 6673 ft 215 kts 188°
2026-05-07 11:56 53.28224 -2.44949 7292 ft 221 kts 186°
2026-05-07 11:56 53.26700 -2.44619 7994 ft 226 kts 159°
2026-05-07 11:56 53.25298 -2.43412 8719 ft 228 kts 155°
2026-05-07 11:56 53.23883 -2.42160 9426 ft 231 kts 155°
2026-05-07 11:57 53.22448 -2.40895 10105 ft 232 kts 155°
2026-05-07 11:57 53.21035 -2.39651 10754 ft 233 kts 154°
2026-05-07 11:57 53.19582 -2.38374 11390 ft 236 kts 155°
2026-05-07 11:57 53.18113 -2.37087 12025 ft 240 kts 155°
2026-05-07 11:58 53.16644 -2.35803 12659 ft 243 kts 155°
2026-05-07 11:58 53.15138 -2.34486 13325 ft 246 kts 155°
2026-05-07 11:58 53.13605 -2.33147 13953 ft 251 kts 154°
2026-05-07 11:58 53.12040 -2.31783 14544 ft 257 kts 154°
2026-05-07 11:59 53.10388 -2.30347 14758 ft 280 kts 154°
2026-05-07 11:59 53.08614 -2.28803 14956 ft 302 kts 154°
2026-05-07 11:59 53.06677 -2.27116 15139 ft 325 kts 154°
2026-05-07 11:59 53.04608 -2.25317 15405 ft 343 kts 154°
2026-05-07 12:00 53.02462 -2.23453 15949 ft 351 kts 154°
2026-05-07 12:00 53.00310 -2.21582 16725 ft 352 kts 154°
2026-05-07 12:00 52.98125 -2.19686 17481 ft 355 kts 154°
2026-05-07 12:00 52.95912 -2.17769 18128 ft 361 kts 154°
2026-05-07 12:01 52.93673 -2.15832 18728 ft 365 kts 154°
2026-05-07 12:01 52.91411 -2.13877 19370 ft 367 kts 154°
2026-05-07 12:01 52.89140 -2.11915 20023 ft 369 kts 154°
2026-05-07 12:01 52.86878 -2.09963 20630 ft 372 kts 154°
2026-05-07 12:02 52.84566 -2.07970 21222 ft 375 kts 154°
2026-05-07 12:02 52.82238 -2.05966 21824 ft 378 kts 154°
2026-05-07 12:02 52.79887 -2.03945 22396 ft 381 kts 153°
2026-05-07 12:02 52.77522 -2.01914 22976 ft 384 kts 153°
2026-05-07 12:03 52.75167 -1.99894 23528 ft 387 kts 153°
2026-05-07 12:03 52.72760 -1.97832 23982 ft 391 kts 153°
2026-05-07 12:03 52.70335 -1.95756 24453 ft 393 kts 153°
2026-05-07 12:03 52.67904 -1.93679 24931 ft 395 kts 153°
2026-05-07 12:04 52.65454 -1.91588 25395 ft 397 kts 153°
2026-05-07 12:04 52.62987 -1.89485 25842 ft 400 kts 153°
2026-05-07 12:04 52.60507 -1.87373 26277 ft 402 kts 153°
2026-05-07 12:04 52.58015 -1.85255 26784 ft 402 kts 152°
2026-05-07 12:05 52.55557 -1.83168 27396 ft 400 kts 152°
2026-05-07 12:05 52.53093 -1.81079 28039 ft 397 kts 152°
2026-05-07 12:05 52.50641 -1.79002 28627 ft 395 kts 152°
2026-05-07 12:05 52.48196 -1.76934 29147 ft 395 kts 152°
2026-05-07 12:06 52.45754 -1.74870 29677 ft 395 kts 152°
2026-05-07 12:06 52.43317 -1.72814 30235 ft 393 kts 152°
2026-05-07 12:06 52.40889 -1.70766 30713 ft 391 kts 152°
2026-05-07 12:06 52.38499 -1.68755 31137 ft 390 kts 151°
2026-05-07 12:07 52.36083 -1.66742 31552 ft 390 kts 153°
2026-05-07 12:07 52.33564 -1.65106 31990 ft 390 kts 160°
2026-05-07 12:07 52.30967 -1.63746 32437 ft 389 kts 161°
2026-05-07 12:07 52.28383 -1.62445 32852 ft 388 kts 161°
2026-05-07 12:08 52.25793 -1.61144 33237 ft 389 kts 161°
2026-05-07 12:08 52.23225 -1.59843 33510 ft 391 kts 161°
2026-05-07 12:08 52.20622 -1.58511 33884 ft 390 kts 161°
2026-05-07 12:08 52.18031 -1.57176 34284 ft 388 kts 161°
2026-05-07 12:09 52.15449 -1.55840 34577 ft 389 kts 161°
2026-05-07 12:09 52.12891 -1.54515 34809 ft 390 kts 161°
2026-05-07 12:09 52.10296 -1.53169 35068 ft 391 kts 161°
2026-05-07 12:09 52.07700 -1.51825 35353 ft 390 kts 161°
2026-05-07 12:10 52.05105 -1.50483 35607 ft 391 kts 162°
2026-05-07 12:10 52.02509 -1.49141 35826 ft 392 kts 162°
2026-05-07 12:10 51.99904 -1.47797 36031 ft 393 kts 162°
2026-05-07 12:10 51.97322 -1.46467 36268 ft 393 kts 162°
2026-05-07 12:11 51.94714 -1.45125 36519 ft 393 kts 163°
2026-05-07 12:11 51.92095 -1.43779 36730 ft 394 kts 163°
2026-05-07 12:11 51.89475 -1.42434 36923 ft 396 kts 163°
2026-05-07 12:12 51.84171 -1.39716 37048 ft 404 kts 163°
2026-05-07 12:12 51.78776 -1.36957 37058 ft 413 kts 163°
2026-05-07 12:13 51.73204 -1.34131 37062 ft 423 kts 163°
2026-05-07 12:13 51.67557 -1.31288 37061 ft 432 kts 163°
2026-05-07 12:14 51.61753 -1.28361 37057 ft 439 kts 163°
2026-05-07 12:14 51.55907 -1.25393 37044 ft 441 kts 163°
2026-05-07 12:15 51.50028 -1.22417 37051 ft 443 kts 163°
2026-05-07 12:15 51.44376 -1.18549 37056 ft 444 kts 155°
2026-05-07 12:16 51.38785 -1.14288 37042 ft 444 kts 156°
2026-05-07 12:16 51.33197 -1.10193 37049 ft 442 kts 156°
2026-05-07 12:17 51.27586 -1.06100 37045 ft 440 kts 157°
2026-05-07 12:17 51.22036 -1.02053 37049 ft 439 kts 157°
2026-05-07 12:18 51.16468 -0.98010 37049 ft 440 kts 157°
2026-05-07 12:18 51.10916 -0.93989 37047 ft 441 kts 157°
2026-05-07 12:19 51.05323 -0.89947 37054 ft 441 kts 157°
2026-05-07 12:19 50.99718 -0.85905 37057 ft 442 kts 157°
2026-05-07 12:20 50.94145 -0.81897 37061 ft 441 kts 157°
2026-05-07 12:20 50.88540 -0.77877 37064 ft 441 kts 157°
2026-05-07 12:21 50.83095 -0.73504 37073 ft 441 kts 149°
2026-05-07 12:21 50.77946 -0.68205 37068 ft 442 kts 148°
2026-05-07 12:22 50.72812 -0.62844 37070 ft 441 kts 148°
2026-05-07 12:22 50.67684 -0.57585 37078 ft 441 kts 149°
2026-05-07 12:23 50.62506 -0.52339 37064 ft 441 kts 149°
2026-05-07 12:23 50.57369 -0.47161 37078 ft 441 kts 149°
2026-05-07 12:24 50.52188 -0.41951 37079 ft 441 kts 149°
2026-05-07 12:24 50.47036 -0.36780 37082 ft 441 kts 149°
2026-05-07 12:25 50.41847 -0.31586 37068 ft 442 kts 149°
2026-05-07 12:25 50.36681 -0.26429 37077 ft 442 kts 149°
2026-05-07 12:26 50.31469 -0.21240 37080 ft 443 kts 149°
2026-05-07 12:26 50.26291 -0.16098 37081 ft 443 kts 149°
2026-05-07 12:27 50.21083 -0.10937 37077 ft 443 kts 149°
2026-05-07 12:27 50.15861 -0.05776 37073 ft 443 kts 150°
2026-05-07 12:28 50.10641 -0.00793 37064 ft 441 kts 156°
2026-05-07 12:28 50.04877 0.02193 37088 ft 435 kts 168°
2026-05-07 12:29 49.98972 0.04402 37084 ft 435 kts 168°
2026-05-07 12:29 49.93110 0.06637 37073 ft 435 kts 168°
2026-05-07 12:30 49.87225 0.08929 37078 ft 435 kts 168°
2026-05-07 12:30 49.81362 0.11220 37078 ft 435 kts 168°
2026-05-07 12:31 49.75499 0.13504 37077 ft 436 kts 168°
2026-05-07 12:31 49.69605 0.15793 37074 ft 436 kts 168°
2026-05-07 12:32 49.63718 0.18127 37074 ft 436 kts 167°
2026-05-07 12:32 49.57866 0.20514 37080 ft 436 kts 167°
2026-05-07 12:33 49.50025 0.23695 37061 ft 437 kts 167°
2026-05-07 12:33 49.44125 0.26072 37042 ft 438 kts 167°
2026-05-07 12:34 49.38252 0.28432 37065 ft 438 kts 167°
2026-05-07 12:34 49.32334 0.30805 37045 ft 439 kts 167°
2026-05-07 12:35 49.26456 0.33217 37042 ft 438 kts 167°
2026-05-07 12:35 49.20562 0.35713 37054 ft 437 kts 166°
2026-05-07 12:36 49.14724 0.38177 37044 ft 436 kts 167°
2026-05-07 12:36 49.08867 0.40633 37046 ft 435 kts 167°
2026-05-07 12:37 49.03057 0.43058 37044 ft 434 kts 167°
2026-05-07 12:37 48.97211 0.45492 37045 ft 434 kts 167°
2026-05-07 12:38 48.91407 0.47903 37041 ft 434 kts 167°
2026-05-07 12:38 48.85565 0.50326 37046 ft 435 kts 167°
2026-05-07 12:39 48.79748 0.52731 37055 ft 436 kts 167°
2026-05-07 12:39 48.73862 0.55082 37046 ft 437 kts 168°
2026-05-07 12:40 48.67957 0.57369 37057 ft 438 kts 168°
2026-05-07 12:40 48.62059 0.59662 37038 ft 441 kts 168°
2026-05-07 12:41 48.56094 0.61986 37045 ft 441 kts 168°
2026-05-07 12:41 48.50177 0.64298 37041 ft 441 kts 167°
2026-05-07 12:42 48.44248 0.66712 37044 ft 440 kts 167°
2026-05-07 12:42 48.38363 0.69116 37049 ft 439 kts 167°
2026-05-07 12:43 48.32470 0.71505 37044 ft 438 kts 167°
2026-05-07 12:43 48.26571 0.73887 37043 ft 437 kts 167°
2026-05-07 12:44 48.20697 0.76227 37046 ft 436 kts 168°
2026-05-07 12:44 48.14840 0.78527 37034 ft 437 kts 168°
2026-05-07 12:45 48.08981 0.80824 37040 ft 437 kts 168°
2026-05-07 12:45 48.03088 0.83133 37036 ft 436 kts 168°
2026-05-07 12:46 47.97206 0.85434 37028 ft 436 kts 168°
2026-05-07 12:46 47.91354 0.87719 37037 ft 436 kts 168°
2026-05-07 12:47 47.85466 0.90012 37039 ft 438 kts 168°
2026-05-07 12:47 47.79594 0.92290 37020 ft 437 kts 168°
2026-05-07 12:48 47.73690 0.94573 37030 ft 437 kts 168°
2026-05-07 12:48 47.67840 0.96830 37039 ft 437 kts 168°
2026-05-07 12:49 47.61933 0.99104 37030 ft 437 kts 168°
2026-05-07 12:49 47.56063 1.01360 37028 ft 437 kts 168°
2026-05-07 12:50 47.50152 1.03627 37028 ft 437 kts 168°
2026-05-07 12:50 47.44284 1.05848 37021 ft 437 kts 171°
2026-05-07 12:51 47.38278 1.06454 37040 ft 431 kts 184°
2026-05-07 12:51 47.32295 1.06222 37032 ft 432 kts 184°
2026-05-07 12:52 47.26270 1.06031 37020 ft 432 kts 184°
2026-05-07 12:52 47.20283 1.05889 37024 ft 432 kts 184°
2026-05-07 12:53 47.14264 1.05758 37017 ft 431 kts 184°
2026-05-07 12:53 47.08267 1.05626 37020 ft 430 kts 184°
2026-05-07 12:54 47.02295 1.05493 37014 ft 430 kts 184°
2026-05-07 12:54 46.96313 1.05261 37020 ft 429 kts 185°
2026-05-07 12:55 46.90389 1.04983 37023 ft 428 kts 185°
2026-05-07 12:55 46.84441 1.04714 37022 ft 427 kts 185°
2026-05-07 12:56 46.78493 1.04455 37006 ft 427 kts 185°
2026-05-07 12:56 46.72577 1.04200 37018 ft 426 kts 185°
2026-05-07 12:57 46.66662 1.03946 37016 ft 427 kts 185°
2026-05-07 12:57 46.60712 1.03690 37015 ft 427 kts 185°
2026-05-07 12:58 46.54750 1.03435 37003 ft 427 kts 185°
2026-05-07 12:58 46.48824 1.04070 37004 ft 433 kts 170°
2026-05-07 12:59 46.42939 1.06092 37008 ft 435 kts 170°
2026-05-07 12:59 46.37068 1.08128 37007 ft 437 kts 170°
2026-05-07 13:00 46.31118 1.10143 37002 ft 438 kts 170°
2026-05-07 13:00 46.25167 1.12127 37005 ft 438 kts 171°
2026-05-07 13:01 46.19245 1.14091 37000 ft 438 kts 170°
2026-05-07 13:01 46.13308 1.16058 36998 ft 436 kts 171°
2026-05-07 13:02 46.07419 1.18003 37004 ft 435 kts 171°
2026-05-07 13:02 46.01524 1.19947 37018 ft 434 kts 171°
2026-05-07 13:03 45.95630 1.21886 37005 ft 433 kts 171°
2026-05-07 13:03 45.89772 1.23810 37021 ft 431 kts 171°
2026-05-07 13:04 45.83934 1.25722 37019 ft 429 kts 171°
2026-05-07 13:04 45.78144 1.27615 37021 ft 428 kts 171°
2026-05-07 13:05 45.72335 1.29509 37021 ft 428 kts 171°
2026-05-07 13:05 45.66518 1.31403 36999 ft 428 kts 171°
2026-05-07 13:06 45.60727 1.33284 37009 ft 428 kts 171°
2026-05-07 13:06 45.54890 1.35176 36995 ft 430 kts 171°
2026-05-07 13:07 45.49086 1.37054 37000 ft 430 kts 171°
2026-05-07 13:07 45.43227 1.38945 37003 ft 430 kts 171°
2026-05-07 13:08 45.37373 1.40830 36992 ft 431 kts 171°
2026-05-07 13:08 45.31548 1.42702 37012 ft 431 kts 171°
2026-05-07 13:09 45.25673 1.44588 37010 ft 432 kts 171°
2026-05-07 13:09 45.19846 1.46455 37016 ft 431 kts 171°
2026-05-07 13:10 45.13988 1.48327 37019 ft 430 kts 171°
2026-05-07 13:10 45.08188 1.50177 37018 ft 428 kts 171°
2026-05-07 13:11 45.02377 1.52027 37020 ft 427 kts 171°
2026-05-07 13:11 44.96580 1.53868 36985 ft 426 kts 171°
2026-05-07 13:12 44.90827 1.55691 37004 ft 424 kts 171°
2026-05-07 13:12 44.85080 1.57508 36991 ft 424 kts 171°
2026-05-07 13:13 44.79316 1.59328 37004 ft 424 kts 171°
2026-05-07 13:13 44.73540 1.61146 36997 ft 425 kts 171°
2026-05-07 13:14 44.67792 1.62952 36999 ft 425 kts 171°
2026-05-07 13:14 44.62004 1.64768 36996 ft 426 kts 171°
2026-05-07 13:15 44.56210 1.66583 36996 ft 426 kts 171°
2026-05-07 13:15 44.50406 1.68396 36997 ft 427 kts 171°
2026-05-07 13:16 44.44628 1.70197 37006 ft 427 kts 171°
2026-05-07 13:16 44.38815 1.72007 36985 ft 428 kts 171°
2026-05-07 13:17 44.32989 1.73818 36995 ft 427 kts 171°
2026-05-07 13:17 44.27203 1.75502 36997 ft 426 kts 173°
2026-05-07 13:18 44.21326 1.76780 37000 ft 426 kts 175°
2026-05-07 13:18 44.15501 1.78002 37002 ft 425 kts 174°
2026-05-07 13:19 44.09642 1.79274 36995 ft 425 kts 174°
2026-05-07 13:19 44.03796 1.80559 36997 ft 424 kts 174°
2026-05-07 13:20 43.97997 1.81831 36997 ft 424 kts 174°
2026-05-07 13:20 43.92154 1.82874 37002 ft 422 kts 179°
2026-05-07 13:21 43.86292 1.83399 36998 ft 421 kts 180°
2026-05-07 13:21 43.80441 1.83887 36993 ft 420 kts 179°
2026-05-07 13:22 43.74640 1.84421 37002 ft 420 kts 179°
2026-05-07 13:22 43.68814 1.84982 37003 ft 419 kts 179°
2026-05-07 13:23 43.63979 1.85452 37010 ft 418 kts 179°
2026-05-07 13:23 43.58165 1.86015 36997 ft 417 kts 179°
2026-05-07 13:24 43.52360 1.86575 36996 ft 417 kts 179°
2026-05-07 13:24 43.46575 1.87131 36985 ft 416 kts 179°
2026-05-07 13:25 43.40829 1.87683 36966 ft 416 kts 179°
2026-05-07 13:25 43.35050 1.88237 36978 ft 415 kts 179°
2026-05-07 13:26 43.29297 1.88788 36979 ft 417 kts 179°
2026-05-07 13:26 43.23476 1.89348 36984 ft 419 kts 179°
2026-05-07 13:27 43.17669 1.89907 36976 ft 421 kts 180°
2026-05-07 13:27 43.11806 1.90469 36977 ft 421 kts 180°
2026-05-07 13:28 43.05964 1.91028 36962 ft 420 kts 180°
2026-05-07 13:28 43.00124 1.91585 36954 ft 419 kts 180°
2026-05-07 13:29 42.94355 1.92136 36974 ft 417 kts 180°
2026-05-07 13:29 42.88584 1.92686 36965 ft 414 kts 180°
2026-05-07 13:30 42.82848 1.93230 36975 ft 410 kts 180°
2026-05-07 13:30 42.77188 1.93766 36977 ft 408 kts 180°
2026-05-07 13:31 42.71525 1.94301 36984 ft 406 kts 180°
2026-05-07 13:31 42.65923 1.95101 36954 ft 411 kts 171°
2026-05-07 13:32 42.60382 1.97139 36994 ft 414 kts 169°
2026-05-07 13:32 42.54824 1.99193 36988 ft 416 kts 170°
2026-05-07 13:33 42.49230 2.01221 36983 ft 415 kts 170°
2026-05-07 13:33 42.43639 2.03230 36978 ft 415 kts 170°
2026-05-07 13:34 42.35273 2.06230 36971 ft 416 kts 171°
2026-05-07 13:35 42.29646 2.08229 36960 ft 417 kts 171°
2026-05-07 13:35 42.24060 2.10208 36972 ft 417 kts 171°
2026-05-07 13:36 42.18449 2.12194 36978 ft 416 kts 171°
2026-05-07 13:36 42.12858 2.14171 36967 ft 414 kts 171°
2026-05-07 13:37 42.07283 2.16138 36974 ft 413 kts 171°
2026-05-07 13:37 42.01750 2.18086 36977 ft 412 kts 171°
2026-05-07 13:38 41.96207 2.20035 36963 ft 410 kts 171°
2026-05-07 13:38 41.90685 2.21973 36978 ft 409 kts 171°
2026-05-07 13:39 41.85213 2.23890 36977 ft 407 kts 171°
2026-05-07 13:39 41.79711 2.25813 36989 ft 408 kts 171°
2026-05-07 13:40 41.74221 2.27729 36976 ft 410 kts 172°
2026-05-07 13:40 41.68691 2.29659 36975 ft 410 kts 172°
2026-05-07 13:41 41.63155 2.31589 36989 ft 410 kts 172°
2026-05-07 13:41 41.57664 2.33500 36990 ft 409 kts 172°
2026-05-07 13:42 41.52156 2.35414 36985 ft 407 kts 172°
2026-05-07 13:42 41.46671 2.37317 36986 ft 406 kts 172°
2026-05-07 13:43 41.41214 2.39206 36994 ft 404 kts 172°
2026-05-07 13:43 41.35831 2.41068 36975 ft 394 kts 172°
2026-05-07 13:43 41.33218 2.41978 36951 ft 381 kts 172°
2026-05-07 13:44 41.30674 2.42860 36619 ft 375 kts 172°
2026-05-07 13:44 41.28164 2.43726 36373 ft 369 kts 173°
2026-05-07 13:44 41.25683 2.44578 35873 ft 369 kts 173°
2026-05-07 13:44 41.23178 2.45433 35251 ft 373 kts 173°
2026-05-07 13:45 41.20665 2.46292 34805 ft 372 kts 173°
2026-05-07 13:45 41.18207 2.47136 34511 ft 366 kts 174°
2026-05-07 13:45 41.15758 2.47980 34237 ft 361 kts 174°
2026-05-07 13:45 41.13336 2.48813 33902 ft 357 kts 174°
2026-05-07 13:46 41.10937 2.49635 33478 ft 354 kts 174°
2026-05-07 13:46 41.08551 2.50451 32991 ft 353 kts 174°
2026-05-07 13:46 41.06176 2.51260 32524 ft 352 kts 174°
2026-05-07 13:46 41.03832 2.52060 32089 ft 351 kts 174°
2026-05-07 13:47 41.01473 2.52865 31668 ft 350 kts 174°
2026-05-07 13:47 40.99112 2.53671 31252 ft 348 kts 174°
2026-05-07 13:47 40.96761 2.54472 30802 ft 348 kts 174°
2026-05-07 13:47 40.94426 2.55268 30451 ft 346 kts 174°
2026-05-07 13:48 40.92123 2.56053 30097 ft 344 kts 174°
2026-05-07 13:48 40.89818 2.56838 29703 ft 341 kts 174°
2026-05-07 13:48 40.87517 2.57621 29301 ft 338 kts 173°
2026-05-07 13:48 40.85251 2.58393 28986 ft 333 kts 173°
2026-05-07 13:49 40.83018 2.59152 28637 ft 330 kts 173°
2026-05-07 13:49 40.80833 2.59894 28292 ft 327 kts 173°
2026-05-07 13:49 40.78639 2.60638 27944 ft 324 kts 173°
2026-05-07 13:49 40.76462 2.61376 27592 ft 322 kts 173°
2026-05-07 13:50 40.74286 2.62116 27264 ft 322 kts 173°
2026-05-07 13:50 40.72105 2.62858 26927 ft 323 kts 173°
2026-05-07 13:50 40.69916 2.63600 26586 ft 324 kts 173°
2026-05-07 13:50 40.67748 2.64333 26251 ft 325 kts 172°
2026-05-07 13:51 40.65546 2.65076 25911 ft 326 kts 172°
2026-05-07 13:51 40.63342 2.65819 25563 ft 328 kts 172°
2026-05-07 13:51 40.61125 2.66566 25218 ft 329 kts 172°
2026-05-07 13:51 40.58898 2.67314 24857 ft 331 kts 172°
2026-05-07 13:52 40.56653 2.68069 24501 ft 333 kts 172°
2026-05-07 13:52 40.54399 2.68828 24132 ft 336 kts 172°
2026-05-07 13:52 40.52119 2.69596 23763 ft 340 kts 171°
2026-05-07 13:52 40.49819 2.70428 23356 ft 347 kts 165°
2026-05-07 13:53 40.47627 2.71805 22929 ft 357 kts 157°
2026-05-07 13:53 40.45452 2.73424 22539 ft 360 kts 155°
2026-05-07 13:53 40.43280 2.75072 22153 ft 362 kts 155°
2026-05-07 13:53 40.41090 2.76716 21774 ft 363 kts 156°
2026-05-07 13:54 40.38881 2.78348 21405 ft 364 kts 156°
2026-05-07 13:54 40.36666 2.79963 21034 ft 364 kts 156°
2026-05-07 13:54 40.34446 2.81565 20657 ft 362 kts 156°
2026-05-07 13:54 40.32243 2.83152 20288 ft 361 kts 155°
2026-05-07 13:55 40.30042 2.84734 19917 ft 360 kts 155°
2026-05-07 13:55 40.27850 2.86310 19550 ft 359 kts 155°
2026-05-07 13:55 40.25657 2.87887 19179 ft 358 kts 154°
2026-05-07 13:55 40.23498 2.89440 18814 ft 358 kts 154°
2026-05-07 13:56 40.21313 2.91010 18439 ft 357 kts 154°
2026-05-07 13:56 40.19136 2.92579 18025 ft 356 kts 154°
2026-05-07 13:56 40.16971 2.94139 17620 ft 352 kts 154°
2026-05-07 13:56 40.14834 2.95678 17239 ft 348 kts 153°
2026-05-07 13:57 40.12740 2.97187 16875 ft 344 kts 153°
2026-05-07 13:57 40.10651 2.98691 16522 ft 341 kts 153°
2026-05-07 13:57 40.08576 3.00184 16176 ft 337 kts 153°
2026-05-07 13:57 40.06533 3.01583 15830 ft 333 kts 160°
2026-05-07 13:58 40.04297 3.02150 15513 ft 325 kts 180°
2026-05-07 13:58 40.02073 3.01755 15173 ft 322 kts 196°
2026-05-07 13:58 39.99950 3.00855 14848 ft 319 kts 199°
2026-05-07 13:58 39.97857 2.99891 14502 ft 318 kts 199°
2026-05-07 13:59 39.95772 2.98927 14166 ft 317 kts 199°
2026-05-07 13:59 39.93719 2.97988 13843 ft 315 kts 198°
2026-05-07 13:59 39.91647 2.97055 13492 ft 314 kts 198°
2026-05-07 13:59 39.89578 2.96133 13121 ft 312 kts 198°
2026-05-07 14:00 39.87529 2.95225 12798 ft 310 kts 198°
2026-05-07 14:00 39.85482 2.94320 12449 ft 310 kts 198°
2026-05-07 14:00 39.83565 2.93141 12119 ft 311 kts 216°
2026-05-07 14:00 39.82072 2.91118 11917 ft 310 kts 231°
2026-05-07 14:01 39.80861 2.88788 11601 ft 310 kts 234°
2026-05-07 14:01 39.79676 2.86462 11377 ft 305 kts 234°
2026-05-07 14:01 39.78517 2.84218 11257 ft 299 kts 234°
2026-05-07 14:01 39.77354 2.81993 11097 ft 295 kts 234°
2026-05-07 14:02 39.76186 2.79768 10775 ft 298 kts 233°
2026-05-07 14:02 39.75010 2.77538 10480 ft 300 kts 233°
2026-05-07 14:02 39.73826 2.75294 10177 ft 302 kts 233°
2026-05-07 14:02 39.72632 2.73034 9875 ft 303 kts 233°
2026-05-07 14:03 39.71447 2.70793 9567 ft 305 kts 233°
2026-05-07 14:03 39.70247 2.68518 9247 ft 306 kts 233°
2026-05-07 14:03 39.69041 2.66237 8932 ft 307 kts 233°
2026-05-07 14:03 39.67834 2.63950 8620 ft 305 kts 233°
2026-05-07 14:04 39.66639 2.61674 8311 ft 303 kts 233°
2026-05-07 14:04 39.65451 2.59419 8006 ft 300 kts 234°
2026-05-07 14:04 39.64281 2.57200 7722 ft 297 kts 234°
2026-05-07 14:04 39.63135 2.55032 7540 ft 291 kts 234°
2026-05-07 14:05 39.62007 2.52898 7391 ft 281 kts 234°
2026-05-07 14:05 39.60903 2.50812 6852 ft 282 kts 234°
2026-05-07 14:05 39.59787 2.48708 6348 ft 283 kts 234°
2026-05-07 14:05 39.58664 2.46592 5752 ft 285 kts 234°
2026-05-07 14:06 39.57542 2.44479 5365 ft 283 kts 234°
2026-05-07 14:06 39.56422 2.42418 5262 ft 274 kts 228°
2026-05-07 14:06 39.54932 2.41019 5185 ft 260 kts 198°
2026-05-07 14:06 39.53232 2.40743 5117 ft 244 kts 168°
2026-05-07 14:07 39.51668 2.41430 5056 ft 232 kts 153°
2026-05-07 14:07 39.50227 2.42300 4996 ft 224 kts 152°
2026-05-07 14:07 39.48994 2.43422 4846 ft 213 kts 126°
2026-05-07 14:07 39.48476 2.45119 4730 ft 197 kts 96°
2026-05-07 14:08 39.48389 2.46832 4634 ft 184 kts 92°
2026-05-07 14:08 39.48343 2.48474 4371 ft 181 kts 92°
2026-05-07 14:08 39.48297 2.50080 4118 ft 179 kts 92°
2026-05-07 14:08 39.48251 2.51683 3826 ft 178 kts 92°
2026-05-07 14:09 39.48203 2.53294 3504 ft 179 kts 92°
2026-05-07 14:09 39.48150 2.54950 3069 ft 187 kts 91°
2026-05-07 14:09 39.48135 2.56650 2722 ft 189 kts 81°
2026-05-07 14:09 39.48694 2.58167 2357 ft 187 kts 56°
2026-05-07 14:10 39.49341 2.59563 2067 ft 178 kts 63°
2026-05-07 14:10 39.49945 2.60919 1828 ft 167 kts 60°
2026-05-07 14:10 39.50522 2.62148 1635 ft 151 kts 60°
2026-05-07 14:10 39.50877 2.62904 1474 ft 142 kts 59°
2026-05-07 14:11 39.51517 2.64265 1247 ft 128 kts 60°
2026-05-07 14:11 39.51829 2.64930 1121 ft 129 kts 61°
2026-05-07 14:11 39.52297 2.65928 947 ft 128 kts 59°
2026-05-07 14:11 39.52751 2.66891 789 ft 128 kts 60°
2026-05-07 14:12 39.53223 2.67894 611 ft 128 kts 60°
2026-05-07 14:12 39.53663 2.68828 403 ft 122 kts 59°
2026-05-07 14:12 39.54106 2.69781 268 ft 126 kts 60°
2026-05-07 14:12 39.54570 2.70756 122 ft 125 kts 59°
2026-05-07 14:13 39.55013 2.71689 37 ft 112 kts 59°
2026-05-07 14:13 39.55303 2.72311 37 ft 56 kts 58°
2026-05-07 14:13 39.55453 2.72628 37 ft 29 kts 61°
2026-05-07 14:13 39.55495 2.72872 37 ft 27 kts 86°
2026-05-07 14:14 39.55499 2.73014 37 ft 9 kts 89°
2026-05-07 14:14 39.55500 2.73093 37 ft 8 kts 92°
2026-05-07 14:14 39.55482 2.73122 37 ft 3 kts 197°
2026-05-07 14:14 39.55465 2.73097 37 ft 6 kts 236°
2026-05-07 14:15 39.55431 2.73030 36 ft 10 kts 238°
2026-05-07 14:15 39.55393 2.72949 37 ft 10 kts 239°
2026-05-07 14:15 39.55357 2.72871 37 ft 10 kts 238°
2026-05-07 14:15 39.55321 2.72795 37 ft 10 kts 238°
2026-05-07 14:16 39.55286 2.72721 36 ft 9 kts 239°
2026-05-07 14:16 39.55252 2.72649 37 ft 9 kts 239°
2026-05-07 14:16 39.55219 2.72579 37 ft 9 kts 238°
2026-05-07 14:16 39.55187 2.72511 36 ft 8 kts 238°
2026-05-07 14:17 39.55152 2.72472 37 ft 6 kts 187°
2026-05-07 14:17 39.55115 2.72492 37 ft 6 kts 148°
2026-05-07 14:17 39.55080 2.72520 37 ft 6 kts 148°
2026-05-07 14:17 39.55047 2.72550 36 ft 6 kts 135°
2026-05-07 14:18 39.55044 2.72597 37 ft 6 kts 56°
2026-05-07 14:18 39.55045 2.72631 37 ft 3 kts 139°
2026-05-07 14:18 39.55026 2.72647 36 ft 3 kts 146°
2026-05-07 14:18 39.55008 2.72663 37 ft 2 kts 147°
2026-05-07 14:19 39.55001 2.72669 37 ft 0 kts 147°